Wind_Speed
10 4 4 2 4 5 4 4 4 4 3 2 5 7 10 13 14 6 8 4 4 6 8 8 12 13 15 13 12 14 15 17 17 18 18 18 25 30 35 38 43 47 51 51
9 6 4 3 3 2 2 3 4 3 7 10 10 10 10 8 4 7 9 8 7 6 8 9 10 13 12 13 12 14 15 16 17 18 22 22 28 31 36 40 45 50 52 50
5 4 7 4 1 1 4 6 6 8 9 8 3 5 4 2 1 5 12 14 10 8 2 3 3 5 10 11 12 15 16 17 19 20 23 27 30 33 37 43 48 51 50 50
4 7 7 5 2 2 6 9 11 11 10 4 5 2 5 3 7 9 9 10 9 9 8 9 7 3 4 7 11 14 14 16 18 21 25 29 32 36 41 46 48 48 48 51
6 9 6 5 2 5 7 11 14 10 3 6 8 2 5 8 6 6 5 6 5 9 13 8 8 9 9 9 9 10 10 15 20 23 26 30 34 40 44 46 46 48 49 51
11 8 5 5 4 6 9 11 5 5 9 2 10 3 3 6 6 5 2 2 8 12 11 9 10 13 9 10 9 11 14 15 21 25 28 33 37 39 41 43 46 48 49 51
10 7 7 4 2 5 7 14 5 2 3 3 8 3 3 2 5 7 5 4 10 8 9 10 12 13 12 11 11 16 19 21 23 26 29 32 35 37 40 43 46 48 50 49
7 5 6 2 1 2 8 12 6 4 4 8 7 2 3 4 4 8 11 8 12 11 10 10 14 14 13 12 14 18 23 24 24 27 30 32 35 38 41 43 46 48 49 47
8 6 9 7 4 3 5 8 5 2 4 3 3 4 8 7 7 9 12 12 14 13 9 12 14 16 16 16 17 23 23 23 24 26 30 33 36 38 41 44 47 48 47 43
8 6 11 9 6 3 3 4 6 5 3 6 4 7 9 15 10 11 13 15 15 11 11 12 15 18 20 20 20 25 27 24 25 30 33 36 40 42 44 47 48 48 44 39
11 10 7 11 8 5 3 2 1 1 2 5 5 10 17 10 13 14 15 18 15 10 12 13 15 20 22 21 23 31 29 29 32 34 38 42 47 47 46 48 49 47 41 38
11 9 8 10 6 3 4 2 3 2 4 6 7 14 5 17 14 13 16 18 10 12 12 15 18 20 20 22 29 32 29 33 34 35 37 44 49 49 47 49 50 45 39 35
12 7 6 4 4 6 6 6 6 7 9 11 7 10 22 19 15 17 12 5 10 12 14 15 20 21 22 28 33 32 33 37 38 39 41 48 47 50 48 50 49 42 38 31
10 10 7 6 4 3 5 5 8 10 9 12 15 20 17 12 12 8 7 8 10 11 13 19 21 22 25 30 34 35 38 36 39 42 46 48 52 49 49 50 45 40 33 24
8 7 7 5 4 4 7 9 10 14 14 12 17 18 11 13 10 10 11 10 10 10 14 16 20 23 28 32 33 38 37 38 42 48 47 51 50 47 49 47 41 35 24 20
9 6 5 4 4 6 9 9 12 9 12 11 12 12 10 9 11 11 12 8 11 14 15 16 20 25 31 36 37 38 39 41 44 45 52 48 46 46 47 42 37 28 23 23
6 5 5 7 7 8 7 12 7 13 13 16 15 13 11 10 11 12 8 11 14 16 17 21 26 31 32 35 36 36 38 40 42 45 46 45 46 48 42 36 25 20 25 22
8 9 11 7 7 4 10 5 13 13 20 15 13 14 11 11 12 12 12 17 20 22 24 29 31 32 35 40 45 44 35 34 39 41 44 43 47 43 36 27 27 24 25 30
11 11 10 5 9 11 10 12 12 14 20 17 14 16 10 9 7 11 15 20 24 27 28 29 33 38 45 49 40 31 29 30 34 40 41 45 44 39 26 29 34 30 19 10
13 13 14 11 6 9 12 14 15 16 16 13 12 8 10 10 11 17 20 20 25 29 30 33 41 45 42 35 26 29 28 33 35 39 42 45 41 30 32 33 19 14 10 10
13 14 13 13 11 14 15 14 16 9 14 15 15 12 10 12 16 20 22 24 29 34 39 42 40 35 30 25 24 26 30 31 35 36 42 41 34 33 28 19 14 11 10 8
10 9 13 16 14 14 14 14 15 15 14 16 16 14 14 17 21 23 24 29 35 38 37 35 30 26 25 23 24 28 28 31 32 37 39 35 32 28 20 20 14 12 12 12
11 11 10 10 11 17 17 15 15 11 15 16 15 15 17 20 22 25 29 32 36 35 33 28 26 25 24 24 26 27 26 29 31 36 36 28 28 26 17 16 12 9 6 7
12 12 12 12 12 13 16 14 16 14 14 15 15 18 21 20 27 29 32 32 32 30 27 26 25 24 23 24 25 25 26 26 31 33 32 23 25 24 16 11 12 10 8 8
16 13 13 14 13 12 12 8 7 11 16 19 20 19 19 25 29 29 28 28 26 26 24 25 25 23 22 22 24 22 23 25 30 30 28 19 21 19 14 12 11 10 9 7
18 18 17 18 16 17 17 18 22 25 19 18 16 19 25 25 23 24 25 25 25 25 24 27 25 23 21 22 20 22 21 25 28 28 24 17 18 17 13 10 10 9 8 7
Wind_Direction
203 181 103 125 128 102 65 46 82 82 67 306 285 297 304 283 272 243 227 233 250 266 278 290 293 285 292 305 315 310 310 316 313 310 299 305 307 308 313 312 313 312 312 314
168 185 173 158 96 79 350 2 360 319 321 322 308 301 307 289 272 219 179 163 196 231 247 268 267 271 278 296 309 310 303 309 308 304 298 300 306 311 308 307 306 308 311 313
158 165 154 134 102 296 356 341 332 324 309 321 275 278 283 294 109 166 167 155 145 173 128 219 272 272 265 282 296 294 302 305 294 287 298 300 307 304 303 305 306 309 314 315
146 167 151 139 172 36 347 331 318 304 300 312 255 271 230 175 143 145 131 131 88 94 40 29 30 348 303 285 289 291 294 296 297 298 301 301 302 302 304 306 310 313 315 315
141 130 140 155 88 11 349 343 315 307 143 75 27 251 238 201 177 169 137 134 58 31 14 8 11 14 355 326 301 301 303 303 303 309 303 302 302 305 309 312 315 316 317 316
147 142 142 118 48 6 333 340 355 67 156 31 15 4 317 209 202 202 182 168 15 355 349 348 352 355 341 324 317 331 337 322 308 312 305 307 310 312 313 316 318 318 317 318
139 141 120 95 25 336 1 16 0 39 25 356 345 353 3 353 230 233 242 266 343 311 326 332 340 349 341 339 333 329 333 330 318 314 315 314 315 318 320 321 321 321 321 320
161 160 159 144 284 343 16 31 37 356 334 332 325 338 347 354 322 311 283 290 311 297 317 321 334 339 338 330 324 327 332 329 323 321 321 322 323 324 324 323 324 326 325 322
173 187 197 202 226 318 328 3 5 297 302 298 313 295 330 338 333 309 319 302 292 278 315 325 332 339 338 312 319 328 328 327 326 328 331 330 327 325 325 327 328 327 327 325
217 185 207 208 228 260 326 329 344 336 315 324 306 295 303 325 319 309 314 298 279 289 316 327 325 336 330 314 316 329 331 329 332 332 332 335 335 330 330 330 330 330 327 325
223 223 214 220 226 255 307 302 279 271 261 304 304 307 308 320 313 303 305 288 273 301 321 324 314 331 319 308 319 331 329 330 332 330 331 334 337 335 332 332 332 330 327 324
235 223 205 206 222 260 292 260 310 326 310 283 276 297 315 323 318 305 307 283 273 316 320 308 318 321 308 309 325 334 332 335 332 327 329 337 333 333 331 331 332 329 326 322
227 213 171 157 214 238 232 255 281 317 320 300 291 293 320 318 319 323 313 284 317 317 305 308 328 313 311 328 335 333 331 330 331 327 328 329 328 331 329 331 330 328 325 324
227 230 221 224 232 249 251 275 307 327 309 303 287 307 332 344 349 347 324 315 324 316 316 328 322 313 314 329 332 330 326 325 328 327 324 326 326 327 328 329 326 325 325 335
231 245 229 233 229 272 287 296 303 311 312 298 312 317 345 338 354 343 332 307 320 324 325 324 324 316 317 325 323 322 319 321 325 323 325 327 325 326 327 326 326 326 332 324
248 254 250 222 272 275 282 289 300 330 326 316 316 314 320 316 329 324 314 302 312 333 339 337 327 319 320 321 318 313 315 316 321 322 326 325 326 328 327 326 327 329 322 314
241 252 250 262 267 257 270 301 306 326 324 311 300 297 302 306 329 328 310 300 320 329 333 328 324 322 319 317 314 317 313 313 315 322 323 327 329 328 328 330 333 326 322 325
258 273 280 259 269 251 292 277 309 313 325 313 292 297 311 316 334 324 326 325 330 332 324 321 317 315 315 315 316 315 315 312 316 322 327 330 329 329 334 331 321 317 315 321
250 263 264 241 252 276 279 294 293 306 321 317 298 304 317 324 337 325 335 338 331 325 320 315 314 317 316 316 323 321 323 327 326 330 331 331 331 335 337 326 321 316 317 316
254 256 253 254 247 271 293 299 286 300 302 329 321 313 311 306 326 322 326 328 330 323 318 317 319 318 316 316 324 330 327 327 330 332 334 334 336 343 336 335 352 19 61 69
257 261 261 265 267 283 290 290 285 267 304 313 316 319 310 303 314 325 325 324 326 321 318 316 316 317 318 325 324 322 324 329 333 336 338 338 349 349 346 3 39 62 79 65
251 266 269 274 280 287 294 281 267 278 292 310 306 313 317 313 319 320 320 321 316 314 316 321 324 324 323 323 325 325 327 334 337 341 341 347 354 359 14 26 74 62 58 76
263 267 270 264 266 280 288 281 275 277 304 302 304 308 313 317 312 317 313 315 315 317 324 325 325 323 324 321 323 327 332 338 341 343 344 357 0 11 21 41 73 68 62 69
263 275 276 291 292 285 280 271 270 279 290 300 304 307 306 307 311 312 315 315 318 327 331 329 326 323 323 325 327 329 337 340 344 346 348 1 7 16 30 43 45 58 80 52
270 278 281 281 287 287 276 278 280 295 301 300 300 302 301 305 311 314 317 324 327 330 331 331 328 325 329 332 330 333 340 343 345 349 350 3 8 21 28 38 37 43 53 59
268 272 271 275 281 274 273 276 286 295 292 287 289 294 299 308 316 324 333 333 332 332 332 334 331 332 336 334 333 339 341 345 348 349 351 4 9 15 18 29 38 37 37 78
Height
3214 3215 3216 3216 3217 3218 3218 3218 3218 3218 3218 3217 3217 3216 3214 3213 3211 3211 3212 3213 3216 3217 3217 3217 3215 3215 3213 3211 3208 3205 3203 3200 3197 3196 3194 3191 3189 3185 3179 3174 3168 3163 3157 3150
3214 3215 3216 3217 3217 3218 3218 3218 3219 3218 3216 3216 3214 3213 3212 3210 3208 3208 3209 3211 3214 3215 3216 3215 3214 3212 3211 3208 3205 3203 3200 3197 3194 3192 3190 3187 3184 3180 3174 3169 3164 3157 3151 3144
3214 3216 3215 3216 3217 3218 3218 3218 3217 3217 3214 3213 3212 3211 3210 3209 3208 3208 3209 3211 3213 3214 3214 3213 3210 3209 3207 3205 3202 3200 3197 3195 3192 3189 3186 3182 3179 3175 3170 3165 3159 3151 3143 3135
3214 3213 3215 3216 3217 3218 3218 3217 3215 3213 3213 3212 3211 3210 3209 3208 3209 3210 3210 3211 3212 3212 3211 3209 3207 3206 3204 3201 3200 3198 3195 3193 3189 3186 3182 3178 3174 3170 3164 3158 3151 3143 3134 3126
3214 3214 3215 3216 3217 3217 3218 3216 3213 3211 3210 3211 3211 3211 3208 3208 3210 3210 3211 3211 3211 3210 3209 3207 3205 3203 3201 3199 3197 3195 3192 3188 3185 3181 3177 3173 3169 3163 3156 3149 3141 3134 3126 3118
3213 3214 3216 3216 3217 3217 3217 3215 3212 3210 3210 3211 3211 3211 3208 3209 3210 3210 3210 3210 3209 3208 3206 3204 3202 3200 3198 3196 3193 3190 3188 3184 3181 3176 3172 3167 3161 3155 3148 3140 3132 3125 3116 3108
3214 3215 3216 3217 3217 3217 3216 3214 3212 3211 3211 3212 3211 3211 3209 3209 3209 3209 3209 3208 3207 3205 3203 3201 3199 3197 3195 3192 3189 3187 3184 3180 3176 3171 3165 3160 3153 3147 3140 3132 3124 3115 3106 3097
3213 3216 3216 3216 3217 3217 3215 3215 3215 3215 3213 3213 3211 3211 3210 3209 3208 3207 3206 3206 3204 3202 3201 3199 3196 3194 3191 3188 3186 3183 3179 3174 3169 3164 3159 3153 3147 3139 3131 3123 3115 3105 3096 3087
3212 3214 3214 3215 3215 3216 3215 3215 3216 3214 3214 3214 3211 3210 3208 3207 3206 3205 3204 3203 3201 3200 3198 3196 3193 3190 3187 3184 3181 3178 3173 3168 3164 3159 3153 3147 3139 3132 3125 3116 3106 3096 3087 3078
3211 3213 3213 3214 3215 3215 3214 3215 3215 3214 3213 3211 3210 3209 3207 3205 3204 3202 3201 3199 3198 3197 3195 3192 3189 3186 3183 3180 3177 3173 3168 3163 3158 3153 3147 3140 3133 3124 3115 3106 3097 3087 3079 3071
3209 3211 3213 3213 3213 3213 3213 3213 3213 3214 3214 3212 3208 3206 3204 3203 3201 3199 3197 3195 3194 3193 3191 3188 3186 3183 3180 3176 3173 3168 3163 3157 3152 3146 3140 3132 3124 3116 3107 3098 3089 3080 3072 3064
3207 3209 3210 3211 3211 3212 3212 3211 3212 3211 3212 3210 3208 3204 3201 3200 3198 3195 3193 3190 3191 3190 3188 3186 3183 3179 3176 3173 3169 3162 3157 3152 3146 3139 3132 3125 3117 3109 3100 3091 3082 3073 3065 3058
3205 3207 3208 3210 3212 3211 3210 3210 3210 3209 3208 3207 3207 3202 3199 3196 3194 3191 3189 3188 3188 3186 3185 3182 3179 3175 3172 3168 3163 3157 3151 3145 3139 3133 3126 3118 3110 3102 3093 3084 3074 3066 3058 3051
3204 3204 3205 3207 3207 3208 3208 3208 3207 3207 3205 3204 3201 3197 3196 3193 3191 3189 3187 3187 3186 3184 3182 3179 3176 3172 3169 3164 3158 3152 3146 3140 3133 3127 3120 3112 3103 3094 3085 3076 3067 3058 3051 3047
3203 3203 3204 3204 3205 3206 3206 3206 3205 3204 3202 3200 3198 3195 3194 3192 3190 3188 3187 3185 3183 3181 3178 3176 3173 3169 3165 3160 3153 3148 3141 3134 3128 3121 3113 3104 3096 3087 3078 3068 3059 3052 3046 3043
3201 3201 3202 3203 3203 3204 3204 3203 3203 3201 3199 3198 3196 3194 3192 3190 3188 3186 3184 3182 3180 3178 3175 3172 3169 3165 3160 3155 3149 3142 3135 3129 3122 3114 3106 3097 3088 3079 3069 3060 3052 3046 3042 3039
3199 3200 3201 3201 3201 3201 3203 3201 3201 3199 3197 3196 3193 3192 3190 3188 3186 3184 3181 3180 3178 3175 3171 3168 3164 3160 3155 3150 3143 3136 3130 3123 3115 3108 3100 3090 3081 3071 3061 3053 3048 3043 3039 3035
3197 3198 3198 3198 3199 3200 3199 3198 3197 3196 3194 3191 3189 3188 3187 3186 3183 3181 3179 3178 3175 3171 3168 3164 3159 3155 3149 3142 3135 3129 3122 3116 3110 3102 3093 3084 3074 3063 3055 3049 3042 3037 3035 3032
3195 3196 3196 3196 3197 3197 3196 3195 3194 3192 3191 3188 3187 3185 3184 3183 3181 3179 3177 3175 3172 3168 3163 3158 3153 3148 3141 3134 3127 3121 3116 3111 3104 3096 3087 3078 3067 3058 3051 3044 3038 3031 3027 3027
3192 3193 3195 3194 3193 3193 3193 3192 3190 3189 3187 3185 3184 3183 3181 3180 3179 3177 3174 3171 3168 3164 3158 3153 3147 3141 3134 3127 3122 3118 3112 3106 3099 3091 3083 3072 3062 3054 3047 3039 3033 3029 3028 3028
3190 3190 3191 3190 3189 3189 3189 3188 3187 3187 3188 3183 3181 3180 3178 3177 3176 3173 3170 3167 3163 3157 3152 3146 3140 3134 3127 3122 3118 3114 3108 3102 3095 3088 3079 3069 3059 3052 3044 3038 3035 3034 3033 3032
3187 3188 3188 3187 3186 3186 3185 3184 3185 3183 3181 3181 3179 3178 3176 3174 3172 3170 3167 3163 3158 3151 3146 3140 3134 3128 3123 3119 3115 3110 3104 3099 3092 3085 3076 3067 3059 3052 3046 3041 3039 3038 3037 3036
3184 3184 3184 3186 3184 3181 3181 3180 3179 3179 3179 3177 3176 3175 3174 3172 3169 3167 3163 3159 3152 3145 3140 3134 3129 3124 3120 3116 3111 3107 3102 3096 3090 3083 3075 3067 3060 3054 3049 3046 3043 3042 3041 3041
3178 3179 3179 3180 3179 3177 3176 3177 3177 3177 3176 3174 3173 3173 3171 3168 3165 3162 3157 3152 3146 3141 3135 3130 3125 3121 3117 3113 3108 3104 3099 3093 3088 3081 3074 3068 3062 3056 3053 3050 3048 3046 3046 3045
3174 3175 3175 3174 3174 3173 3173 3173 3174 3174 3172 3171 3170 3168 3166 3163 3161 3157 3152 3147 3142 3137 3132 3127 3122 3117 3113 3110 3106 3101 3097 3091 3086 3080 3073 3068 3063 3059 3056 3054 3052 3050 3049 3048
3169 3169 3170 3169 3169 3170 3170 3170 3169 3169 3168 3167 3166 3164 3162 3159 3156 3152 3147 3142 3137 3133 3128 3123 3118 3115 3111 3108 3103 3099 3095 3090 3085 3079 3073 3069 3064 3061 3059 3056 3054 3052 3051 3051